Hourly Weather Roundup
Issued by NWS Central Illinois

Home | Current Version | Previous Version | Text Only | Print | Product List | Glossary On
Versions: 1 2 3 4 5 6 7 8 9 10 11 12 13 14 15 16 17 18 19 20 21 22 23 24 25 26 27 28 29 30 31 32 33 34 35 36 37 38 39 40 41 42 43 44 45 46 47 48 49 50
000
NZUS43 KILX 241510
HWRILX

AREA WEATHER ROUNDUP
NATIONAL WEATHER SERVICE, LINCOLN IL
1000 AM CDT THU JUL 24 2014


CITY           SKY/WX    TMP DP  RH WIND       PRES   REMARKS
BLOOMINGTON    MOSUNNY   32  32 100 NE14      30.17F WCI  22
CHAMPAIGN      SUNNY     70  58  65 NE12      30.13F
DECATUR        NOT AVBL
FLORA          SUNNY     68  59  72 N8        30.12S
GALESBURG      SUNNY     73  54  52 E7        30.17F
JACKSONVILLE   SUNNY     71  60  66 E9        30.17F
LACON          SUNNY     68  54  60 NE6       30.17S
LAWRENCEVILLE  SUNNY     71  60  68 N9        30.11R
LITCHFIELD     SUNNY     68  58  70 NE9       30.14F
$$


CITY           SKY/WX    TMP DP  RH WIND       PRES   REMARKS
LINCOLN        SUNNY     71  57  63 NE10      30.14S
MACOMB         SUNNY     69  54  58 E7        30.20S
MATTOON        MOSUNNY   67  60  78 N9        30.13S
MT CARMEL AP   SUNNY     72  61  68 NE9       30.11R
OLNEY-NOBLE AP SUNNY     68  59  73 NE3       30.12R
PARIS          MOSUNNY   68  61  78 NE6       30.14S
PEORIA         SUNNY     71  50  47 NE10      30.17S
PONTIAC        SUNNY     70  57  64 NE10      30.16F
RANTOUL        SUNNY     70  55  59 NE14      30.15S
ROBINSON       SUNNY     72  61  67 NE7       30.12S
SPRINGFIELD    SUNNY     71  58  63 NE9       30.16F
TAYLORVILLE    SUNNY     68  57  68 NE9       30.15S
$$

...REGIONAL REPORTS...


CITY           SKY/WX    TMP DP  RH WIND       PRES   REMARKS
CHICAGO O`HARE MOSUNNY   68  52  56 NE12      30.16F
KANKAKEE       PTSUNNY   68  58  71 NE12      30.15F
MOLINE         SUNNY     70  52  52 SE9       30.17S
MOUNT VERNON   MOSUNNY   68  59  73 NE5       30.13R
PITTSFIELD     SUNNY     71  58  64 NE10      30.18S
QUINCY         SUNNY     71  50  47 NE10      30.17S
ROCKFORD       MOSUNNY   70  48  45 NE6       30.20S
$$


CITY           SKY/WX    TMP DP  RH WIND       PRES   REMARKS
BURLINGTON     SUNNY     71  55  56 SE7       30.18R
CEDAR RAPIDS   SUNNY     70  54  56 S8        30.17S
DES MOINES     CLOUDY    75  62  64 VRB5      30.16R
KIRKSVILLE     SUNNY     73  60  63 E6        30.19R
OTTUMWA        SUNNY     71  60  68 SE7       30.16F
ST LOUIS       SUNNY     71  55  56 VRB5      30.16R
$$


CITY           SKY/WX    TMP DP  RH WIND       PRES   REMARKS
TERRE HAUTE    SUNNY     70  59  68 NE5       30.11F
EVANSVILLE     SUNNY     72  59  63 NE7       30.08S
INDIANAPOLIS   MOSUNNY   68  57  68 NE12      30.10S
LAFAYETTE      PTSUNNY   67  59  75 N3        30.13S
MADISON        MOSUNNY   70  48  45 SE8       30.18F
MILWAUKEE      SUNNY     66  52  60 NE9       30.18F
$$





USA.gov is the U.S. government's official web portal to all federal, state and local government web resources and services.